| time (UTC) | temp F | wind direction | speed MPH | gust MPH | rain 1hr in | rain 24hr in | rain mn in | humidity % | barometer mb |
| 20260505052325 | 75 | 166 | 4.0 | 10.0 | 0.00 | 0.00 | 0.00 | 86 | 1011.7 |
| 20260505051822 | 75 | 147 | 6.0 | 12.0 | 0.00 | 0.00 | 0.00 | 85 | 1011.8 |
| 20260505051320 | 75 | 145 | 7.0 | 11.0 | 0.00 | 0.00 | 0.00 | 85 | 1011.9 |
| 20260505050817 | 75 | 144 | 9.0 | 12.0 | 0.00 | 0.00 | 0.00 | 85 | 1011.8 |
| 20260505050316 | 75 | 142 | 9.0 | 12.0 | 0.00 | 0.00 | 0.00 | 85 | 1011.7 |
| 20260505041746 | 75 | 136 | 7.0 | 11.0 | 0.00 | 0.00 | 0.00 | 83 | 1012.0 |
| 20260505041243 | 75 | 136 | 6.0 | 16.0 | 0.00 | 0.00 | 0.00 | 83 | 1011.9 |
| 20260505040740 | 75 | 149 | 8.0 | 13.0 | 0.00 | 0.00 | 0.00 | 82 | 1012.0 |
| 20260505040237 | 76 | 149 | 11.0 | 12.0 | 0.00 | 0.00 | 0.00 | 82 | 1011.9 |
| 20260505035734 | 76 | 138 | 7.0 | 13.0 | 0.00 | 0.00 | 0.00 | 82 | 1012.0 |
| 20260505035230 | 76 | 126 | 6.0 | 10.0 | 0.00 | 0.00 | 0.00 | 81 | 1012.3 |
| 20260505034727 | 76 | 152 | 6.0 | 12.0 | 0.00 | 0.00 | 0.00 | 81 | 1012.0 |
| 20260505034224 | 76 | 148 | 12.0 | 13.0 | 0.00 | 0.00 | 0.00 | 81 | 1012.1 |
| 20260505033721 | 76 | 122 | 8.0 | 14.0 | 0.00 | 0.00 | 0.00 | 80 | 1012.2 |
| 20260505033219 | 76 | 134 | 8.0 | 12.0 | 0.00 | 0.00 | 0.00 | 80 | 1012.0 |
| 20260505032716 | 76 | 162 | 7.0 | 9.0 | 0.00 | 0.00 | 0.00 | 80 | 1012.1 |
| 20260505032212 | 76 | 160 | 7.0 | 13.0 | 0.00 | 0.00 | 0.00 | 79 | 1012.1 |
| 20260505031710 | 76 | 124 | 8.0 | 13.0 | 0.00 | 0.00 | 0.00 | 79 | 1012.1 |
| 20260505031206 | 77 | 139 | 5.0 | 10.0 | 0.00 | 0.00 | 0.00 | 79 | 1012.0 |
| 20260505030703 | 77 | 128 | 9.0 | 13.0 | 0.00 | 0.00 | 0.00 | 78 | 1012.0 |
| 20260505030159 | 77 | 160 | 5.0 | 11.0 | 0.00 | 0.00 | 0.00 | 78 | 1012.1 |
| 20260505025655 | 77 | 118 | 8.0 | 11.0 | 0.00 | 0.00 | 0.00 | 78 | 1012.1 |
| 20260505025153 | 77 | 143 | 6.0 | 8.0 | 0.00 | 0.00 | 0.00 | 77 | 1012.1 |
| 20260505024650 | 77 | 141 | 6.0 | 16.0 | 0.00 | 0.00 | 0.00 | 77 | 1012.0 |
| 20260505024147 | 77 | 226 | 2.0 | 14.0 | 0.00 | 0.00 | 0.00 | 77 | 1011.8 |
| 20260505023645 | 77 | 151 | 10.0 | 16.0 | 0.00 | 0.00 | 0.00 | 77 | 1011.7 |
| 20260505023143 | 77 | 148 | 10.0 | 14.0 | 0.00 | 0.00 | 0.00 | 77 | 1011.6 |
| 20260505022640 | 77 | 130 | 5.0 | 15.0 | 0.00 | 0.00 | 0.00 | 77 | 1011.4 |
| 20260505022137 | 77 | 182 | 6.0 | 9.0 | 0.00 | 0.00 | 0.00 | 77 | 1011.6 |
| 20260505021633 | 77 | 145 | 11.0 | 15.0 | 0.00 | 0.00 | 0.00 | 77 | 1011.4 |
| 20260505021130 | 77 | 149 | 6.0 | 14.0 | 0.00 | 0.00 | 0.00 | 77 | 1011.2 |
| 20260505020626 | 77 | 153 | 4.0 | 9.0 | 0.00 | 0.00 | 0.00 | 76 | 1011.3 |
| 20260505020122 | 78 | 167 | 8.0 | 12.0 | 0.00 | 0.00 | 0.00 | 76 | 1011.2 |
| 20260505015619 | 78 | 181 | 5.0 | 10.0 | 0.00 | 0.00 | 0.00 | 76 | 1011.2 |
| 20260505015116 | 78 | 179 | 7.0 | 11.0 | 0.00 | 0.00 | 0.00 | 76 | 1011.0 |
| 20260505014612 | 78 | 171 | 7.0 | 10.0 | 0.00 | 0.00 | 0.00 | 76 | 1011.0 |
| 20260505014110 | 78 | 149 | 6.0 | 9.0 | 0.00 | 0.00 | 0.00 | 76 | 1011.0 |
| 20260505013607 | 78 | 177 | 2.0 | 6.0 | 0.00 | 0.00 | 0.00 | 75 | 1011.1 |
| 20260505013104 | 78 | 138 | 6.0 | 11.0 | 0.00 | 0.00 | 0.00 | 75 | 1011.0 |
| 20260505012602 | 78 | 158 | 5.0 | 11.0 | 0.00 | 0.00 | 0.00 | 75 | 1011.0 |
| 20260505012059 | 78 | 169 | 6.0 | 13.0 | 0.00 | 0.00 | 0.00 | 74 | 1011.0 |
| 20260505011554 | 78 | 165 | 6.0 | 13.0 | 0.00 | 0.00 | 0.00 | 74 | 1011.1 |
| 20260505011052 | 78 | 164 | 5.0 | 14.0 | 0.00 | 0.00 | 0.00 | 74 | 1011.1 |
| 20260505010547 | 79 | 173 | 6.0 | 13.0 | 0.00 | 0.00 | 0.00 | 73 | 1011.2 |
| 20260505010044 | 79 | 148 | 6.0 | 11.0 | 0.00 | 0.00 | 0.00 | 73 | 1011.1 |
| 20260505005540 | 79 | 146 | 8.0 | 12.0 | 0.00 | 0.00 | 0.00 | 73 | 1011.2 |
| 20260505005038 | 79 | 154 | 5.0 | 13.0 | 0.00 | 0.00 | 0.00 | 73 | 1011.2 |
| 20260505004535 | 79 | 140 | 7.0 | 17.0 | 0.00 | 0.00 | 0.00 | 73 | 1011.3 |
| 20260505004031 | 80 | 163 | 6.0 | 16.0 | 0.00 | 0.00 | 0.00 | 72 | 1011.1 |
| 20260505003529 | 80 | 127 | 8.0 | 15.0 | 0.00 | 0.00 | 0.00 | 72 | 1011.0 |
| 20260505003026 | 80 | 150 | 13.0 | 16.0 | 0.00 | 0.00 | 0.00 | 71 | 1011.3 |
| 20260505002520 | 80 | 150 | 6.0 | 14.0 | 0.00 | 0.00 | 0.00 | 71 | 1011.3 |
| 20260505002020 | 80 | 146 | 6.0 | 9.0 | 0.00 | 0.00 | 0.00 | 71 | 1011.1 |
| 20260505001517 | 81 | 156 | 5.0 | 8.0 | 0.00 | 0.00 | 0.00 | 71 | 1011.1 |
| 20260505001014 | 81 | 139 | 5.0 | 9.0 | 0.00 | 0.00 | 0.00 | 70 | 1011.1 |
| 20260505000511 | 81 | 135 | 9.0 | 16.0 | 0.00 | 0.00 | 0.00 | 70 | 1011.1 |
| 20260505000009 | 81 | 135 | 5.0 | 10.0 | 0.00 | 0.00 | 0.00 | 70 | 1011.2 |
| 20260504235506 | 81 | 138 | 9.0 | 13.0 | 0.00 | 0.00 | 0.00 | 69 | 1011.4 |
| 20260504235002 | 81 | 161 | 5.0 | 10.0 | 0.00 | 0.00 | 0.00 | 69 | 1011.3 |
| 20260504234459 | 82 | 148 | 4.0 | 12.0 | 0.00 | 0.00 | 0.00 | 69 | 1011.3 |
| 20260504233955 | 82 | 138 | 7.0 | 12.0 | 0.00 | 0.00 | 0.00 | 69 | 1011.2 |
| 20260504233451 | 82 | 153 | 4.0 | 11.0 | 0.00 | 0.00 | 0.00 | 69 | 1011.2 |
| 20260504232948 | 82 | 141 | 8.0 | 14.0 | 0.00 | 0.00 | 0.00 | 69 | 1011.3 |
| 20260504232445 | 82 | 148 | 7.0 | 10.0 | 0.00 | 0.00 | 0.00 | 68 | 1011.3 |
| 20260504231943 | 82 | 157 | 7.0 | 10.0 | 0.00 | 0.00 | 0.00 | 68 | 1011.2 |
| 20260504231439 | 82 | 145 | 6.0 | 13.0 | 0.00 | 0.00 | 0.00 | 68 | 1011.3 |
| 20260504230935 | 83 | 151 | 6.0 | 17.0 | 0.00 | 0.00 | 0.00 | 67 | 1011.3 |
| 20260504230432 | 83 | 181 | 3.0 | 10.0 | 0.00 | 0.00 | 0.00 | 67 | 1011.5 |
| 20260504225931 | 83 | 153 | 5.0 | 11.0 | 0.00 | 0.00 | 0.00 | 67 | 1011.4 |
| 20260504225427 | 83 | 167 | 5.0 | 9.0 | 0.00 | 0.00 | 0.00 | 67 | 1011.6 |
| 20260504224925 | 83 | 156 | 6.0 | 8.0 | 0.00 | 0.00 | 0.00 | 67 | 1011.4 |
| 20260504224421 | 83 | 155 | 6.0 | 10.0 | 0.00 | 0.00 | 0.00 | 67 | 1011.6 |
| 20260504223919 | 83 | 150 | 11.0 | 13.0 | 0.00 | 0.00 | 0.00 | 66 | 1011.6 |
| 20260504223414 | 83 | 180 | 4.0 | 8.0 | 0.00 | 0.00 | 0.00 | 66 | 1011.5 |
| 20260504222910 | 83 | 175 | 2.0 | 10.0 | 0.00 | 0.00 | 0.00 | 66 | 1011.6 |
| 20260504222407 | 83 | 140 | 10.0 | 14.0 | 0.00 | 0.00 | 0.00 | 66 | 1011.3 |
| 20260504221906 | 83 | 150 | 5.0 | 7.0 | 0.00 | 0.00 | 0.00 | 66 | 1011.4 |
| 20260504221402 | 83 | 165 | 4.0 | 10.0 | 0.00 | 0.00 | 0.00 | 67 | 1011.5 |
| 20260504220859 | 83 | 158 | 7.0 | 13.0 | 0.00 | 0.00 | 0.00 | 66 | 1011.5 |
| 20260504220356 | 83 | 192 | 6.0 | 15.0 | 0.00 | 0.00 | 0.00 | 66 | 1011.8 |
| 20260504215853 | 83 | 133 | 6.0 | 12.0 | 0.00 | 0.00 | 0.00 | 65 | 1011.5 |
| 20260504215349 | 83 | 185 | 6.0 | 14.0 | 0.00 | 0.00 | 0.00 | 66 | 1011.6 |
| 20260504214846 | 83 | 158 | 7.0 | 10.0 | 0.00 | 0.00 | 0.00 | 65 | 1011.8 |
| 20260504214343 | 84 | 165 | 4.0 | 12.0 | 0.00 | 0.00 | 0.00 | 66 | 1011.8 |
| 20260504213839 | 83 | 152 | 6.0 | 11.0 | 0.00 | 0.00 | 0.00 | 65 | 1011.7 |
| 20260504213335 | 83 | 154 | 9.0 | 17.0 | 0.00 | 0.00 | 0.00 | 65 | 1011.8 |
| 20260504212833 | 84 | 160 | 7.0 | 14.0 | 0.00 | 0.00 | 0.00 | 65 | 1011.7 |
| 20260504212329 | 84 | 161 | 4.0 | 10.0 | 0.00 | 0.00 | 0.00 | 65 | 1011.8 |
| 20260504211827 | 84 | 165 | 4.0 | 13.0 | 0.00 | 0.00 | 0.00 | 65 | 1012.0 |
| 20260504211327 | 84 | 141 | 10.0 | 14.0 | 0.00 | 0.00 | 0.00 | 66 | 1011.9 |
| 20260504210825 | 83 | 164 | 6.0 | 12.0 | 0.00 | 0.00 | 0.00 | 67 | 1012.0 |
| 20260504210322 | 83 | 162 | 6.0 | 13.0 | 0.00 | 0.00 | 0.00 | 66 | 1012.1 |
| 20260504205819 | 83 | 146 | 7.0 | 13.0 | 0.00 | 0.00 | 0.00 | 66 | 1012.3 |
| 20260504205317 | 83 | 156 | 5.0 | 11.0 | 0.00 | 0.00 | 0.00 | 66 | 1012.3 |
| 20260504204815 | 83 | 155 | 5.0 | 16.0 | 0.00 | 0.00 | 0.00 | 66 | 1012.6 |
| 20260504204313 | 83 | 147 | 9.0 | 10.0 | 0.00 | 0.00 | 0.00 | 66 | 1012.6 |
| 20260504203812 | 83 | 150 | 4.0 | 8.0 | 0.00 | 0.00 | 0.00 | 66 | 1012.8 |
| 20260504203309 | 83 | 151 | 7.0 | 14.0 | 0.00 | 0.00 | 0.00 | 66 | 1012.7 |
| 20260504202804 | 83 | 151 | 6.0 | 12.0 | 0.00 | 0.00 | 0.00 | 66 | 1012.8 |
| 20260504202301 | 83 | 169 | 6.0 | 11.0 | 0.00 | 0.00 | 0.00 | 67 | 1012.6 |
| 20260504201758 | 82 | 140 | 8.0 | 9.0 | 0.00 | 0.00 | 0.00 | 68 | 1013.0 |
| 20260504201255 | 82 | 155 | 5.0 | 12.0 | 0.00 | 0.00 | 0.00 | 67 | 1013.1 |
| 20260504200753 | 82 | 144 | 8.0 | 16.0 | 0.00 | 0.00 | 0.00 | 68 | 1013.1 |
| 20260504200249 | 81 | 143 | 8.0 | 12.0 | 0.00 | 0.00 | 0.00 | 68 | 1013.1 |
| 20260504195745 | 82 | 160 | 6.0 | 12.0 | 0.00 | 0.00 | 0.00 | 68 | 1013.4 |
| 20260504195241 | 82 | 158 | 8.0 | 12.0 | 0.00 | 0.00 | 0.00 | 68 | 1013.2 |
| 20260504194739 | 82 | 156 | 6.0 | 13.0 | 0.00 | 0.00 | 0.00 | 68 | 1013.3 |
| 20260504194235 | 81 | 134 | 9.0 | 10.0 | 0.00 | 0.00 | 0.00 | 69 | 1013.3 |
| 20260504193731 | 81 | 133 | 8.0 | 15.0 | 0.00 | 0.00 | 0.00 | 69 | 1013.4 |
| 20260504193229 | 81 | 148 | 8.0 | 12.0 | 0.00 | 0.00 | 0.00 | 69 | 1013.3 |
| 20260504192727 | 81 | 158 | 6.0 | 13.0 | 0.00 | 0.00 | 0.00 | 69 | 1013.2 |
| 20260504192225 | 81 | 138 | 8.0 | 16.0 | 0.00 | 0.00 | 0.00 | 69 | 1013.4 |
| 20260504191723 | 81 | 130 | 9.0 | 15.0 | 0.00 | 0.00 | 0.00 | 69 | 1013.7 |
| 20260504191220 | 80 | 166 | 3.0 | 10.0 | 0.00 | 0.00 | 0.00 | 70 | 1013.8 |
| 20260504190715 | 80 | 138 | 8.0 | 12.0 | 0.00 | 0.00 | 0.00 | 70 | 1013.7 |
| 20260504190211 | 81 | 156 | 9.0 | 15.0 | 0.00 | 0.00 | 0.00 | 69 | 1013.7 |
| 20260504185708 | 81 | 177 | 9.0 | 11.0 | 0.00 | 0.00 | 0.00 | 69 | 1013.7 |
| 20260504185205 | 81 | 151 | 11.0 | 15.0 | 0.00 | 0.00 | 0.00 | 69 | 1013.7 |
| 20260504184701 | 81 | 127 | 12.0 | 13.0 | 0.00 | 0.00 | 0.00 | 68 | 1013.5 |
| 20260504184156 | 81 | 131 | 9.0 | 13.0 | 0.00 | 0.00 | 0.00 | 69 | 1013.9 |
| 20260504183653 | 80 | 131 | 5.0 | 10.0 | 0.00 | 0.00 | 0.00 | 70 | 1014.0 |
| 20260504183150 | 80 | 164 | 5.0 | 13.0 | 0.00 | 0.00 | 0.00 | 70 | 1014.0 |
| 20260504182648 | 80 | 192 | 5.0 | 10.0 | 0.00 | 0.00 | 0.00 | 69 | 1014.1 |
| 20260504182145 | 80 | 155 | 5.0 | 14.0 | 0.00 | 0.00 | 0.00 | 69 | 1014.3 |
| 20260504181643 | 80 | 148 | 8.0 | 12.0 | 0.00 | 0.00 | 0.00 | 70 | 1014.3 |
| 20260504181140 | 80 | 133 | 9.0 | 14.0 | 0.00 | 0.00 | 0.00 | 69 | 1014.2 |
| 20260504180640 | 80 | 133 | 9.0 | 14.0 | 0.00 | 0.00 | 0.00 | 69 | 1014.3 |
| 20260504180138 | 80 | 129 | 12.0 | 14.0 | 0.00 | 0.00 | 0.00 | 69 | 1014.3 |
| 20260504175635 | 80 | 152 | 5.0 | 9.0 | 0.00 | 0.00 | 0.00 | 70 | 1014.3 |
| 20260504175131 | 80 | 133 | 8.0 | 12.0 | 0.00 | 0.00 | 0.00 | 69 | 1014.3 |
| 20260504174630 | 80 | 128 | 11.0 | 15.0 | 0.00 | 0.00 | 0.00 | 69 | 1014.3 |
| 20260504174125 | 80 | 123 | 11.0 | 13.0 | 0.00 | 0.00 | 0.00 | 69 | 1014.3 |
| 20260504173623 | 80 | 143 | 4.0 | 11.0 | 0.00 | 0.00 | 0.00 | 69 | 1014.3 |
| 20260504173120 | 79 | 132 | 6.0 | 16.0 | 0.00 | 0.00 | 0.00 | 69 | 1014.6 |
| 20260504172616 | 79 | 165 | 6.0 | 12.0 | 0.00 | 0.00 | 0.00 | 69 | 1014.6 |
| 20260504172113 | 79 | 135 | 7.0 | 13.0 | 0.00 | 0.00 | 0.00 | 69 | 1014.7 |
| 20260504171609 | 80 | 119 | 11.0 | 11.0 | 0.00 | 0.00 | 0.00 | 69 | 1014.8 |
| 20260504171107 | 80 | 148 | 8.0 | 11.0 | 0.00 | 0.00 | 0.00 | 69 | 1014.7 |
| 20260504170602 | 79 | 175 | 5.0 | 10.0 | 0.00 | 0.00 | 0.00 | 69 | 1014.9 |
| 20260504150947 | 78 | 148 | 8.0 | 9.0 | 0.00 | 0.00 | 0.00 | 73 | 1015.5 |
| 20260504150444 | 78 | 169 | 8.0 | 19.0 | 0.00 | 0.00 | 0.00 | 74 | 1015.5 |
| 20260504140910 | 75 | 159 | 6.0 | 13.0 | 0.00 | 0.00 | 0.00 | 79 | 1015.8 |
| 20260504140406 | 75 | 149 | 4.0 | 8.0 | 0.00 | 0.00 | 0.00 | 79 | 1015.6 |
| 20260504130330 | 72 | 145 | 4.0 | 7.0 | 0.00 | 0.00 | 0.00 | 83 | 1016.0 |
| 20260504120254 | 69 | 135 | 5.0 | 8.0 | 0.00 | 0.00 | 0.00 | 86 | 1015.4 |
| 20260504110721 | 69 | 123 | 4.0 | 5.0 | 0.00 | 0.00 | 0.00 | 86 | 1015.3 |
| 20260504110217 | 69 | 136 | 4.0 | 7.0 | 0.00 | 0.00 | 0.00 | 86 | 1015.6 |
| 20260504100142 | 68 | 143 | 3.0 | 5.0 | 0.00 | 0.00 | 0.00 | 86 | 1015.8 |
| 20260504090104 | 69 | 119 | 6.0 | 7.0 | 0.00 | 0.00 | 0.00 | 84 | 1016.2 |
| 20260504081535 | 68 | 131 | 4.0 | 5.0 | 0.00 | 0.00 | 0.00 | 83 | 1016.8 |
| 20260504081030 | 68 | 134 | 2.0 | 4.0 | 0.00 | 0.00 | 0.00 | 83 | 1016.9 |
| 20260504080527 | 68 | 107 | 3.0 | 5.0 | 0.00 | 0.00 | 0.00 | 83 | 1016.9 |